Weather in Korgon

Russia / Altai Republic     51°05′59″N   84°02′17″E
temp.,
°C
wind,
m/s
gust,
m/s
humid.,
%
clouds,
%
prec.,
mm/h
press.,
hPa
HPBL,
m
16 may, mon
mon1601:00+7s2291100 3.2 101970
04:00+7s1292100 0.8 101955
07:00+7ssw118946 0.9 101944
10:00+12ne01675 0.3 1018810
13:00+14nnw225564 0.4 10171699
16:00+13w2259100 0.1 1016956
19:00+11nnw117295 0.1 1016116
22:00+7s118015 0.0 101810
17 may, tue
tue1701:00+6s227823 0.0 101715
04:00+6s2176100 0.0 101612
07:00+8s217190 0.0 101519
10:00+15wnw01476 0.0 10141200
13:00+17nnw124177 0.0 10132192
16:00+15w1258100 0.0 1013321
19:00+16nne015022 0.0 1013681
22:00+10s21700 0.0 101511
18 may, wed
wed1801:00+9s226924 0.0 101412
04:00+8s226737 0.0 101414
07:00+10s226465 0.0 101425
10:00+18se113885 0.0 1013988
13:00+21nne113050 0.0 10122389
16:00+22n01278 0.0 10112834
19:00+19nnw224268 0.0 1011771
22:00+12sse116588 0.0 101311
19 may, thu
thu1901:00+11sse2264100 0.0 101325
04:00+11s3262100 0.0 101227
07:00+12s3462100 0.0 101263
10:00+19ssw4103895 0.0 10102103
13:00+18wsw81147100 0.0 10121945
16:00+12s3677100 1.3 1016745
19:00+13ssw237142 1.4 1016733
22:00+9ssw2291100 0.2 101917
20 may, fri
fri2001:00+9ssw11865 0.3 101911
04:00+7s22845 0.0 101913
07:00+9s22766 0.0 101945
10:00+16ese113918 0.0 10181401
13:00+20nne12338 0.0 10162281
16:00+20nnw123217 0.0 10142408
19:00+18nw32463 0.0 1014674
22:00+11wnw11790 0.0 101611